SCP
1 1 0 0 0 0 0 0 0 0 0 0 0 0 1 1 1 0 0 0 0 0 0 0 0 0 0 0 0 0 0 0 0 0 0 0 0 0 1 1 1 1 1 1
1 1 0 0 1 0 0 0 0 0 0 0 0 0 1 1 1 1 0 0 0 0 0 0 0 0 0 0 0 0 0 0 0 0 0 0 0 0 0 1 1 1 1 1
1 1 1 1 0 0 0 0 0 0 0 0 0 0 0 1 1 0 0 0 0 0 0 0 0 0 0 0 0 0 0 0 0 0 0 0 0 0 0 0 1 1 1 1
1 1 0 0 0 0 0 0 0 0 0 0 0 0 0 0 0 0 0 0 0 0 0 0 0 0 0 0 0 0 0 0 0 0 0 0 0 0 0 0 0 0 1 1
0 0 0 0 0 0 0 0 0 0 0 0 0 0 0 0 0 0 0 0 0 0 0 0 0 0 0 0 0 0 0 0 0 0 0 0 0 0 0 0 0 0 1 1
0 0 0 0 0 0 0 0 0 0 0 0 0 0 0 0 0 0 0 0 0 0 0 0 0 0 0 0 0 0 0 0 0 0 0 0 0 0 0 0 0 0 1 1
0 0 0 0 0 0 0 0 0 0 0 0 0 0 0 0 0 0 0 0 0 0 0 0 0 0 0 0 0 0 0 0 0 0 0 0 0 0 0 0 0 0 0 1
0 0 0 0 0 0 0 0 0 0 0 0 0 0 0 0 0 0 0 0 0 0 0 0 0 0 0 0 0 0 0 0 0 0 0 0 0 0 0 0 0 0 0 0
0 0 0 0 0 0 0 0 0 0 0 0 0 0 0 0 0 0 0 0 0 0 0 0 0 0 0 0 0 0 0 0 0 0 0 0 0 0 0 0 0 0 0 0
0 0 0 0 0 0 0 0 0 0 0 0 0 0 0 0 0 0 0 0 0 0 0 0 0 0 0 0 0 0 0 0 0 0 0 0 0 0 0 0 0 0 0 0
0 0 0 0 0 0 0 0 0 0 0 0 0 0 0 0 0 0 0 0 0 0 0 0 0 0 0 0 0 0 0 0 0 0 0 0 0 0 0 0 0 0 0 0
0 0 0 0 0 0 0 0 0 0 0 0 0 0 0 0 0 0 0 0 0 0 0 0 0 0 0 0 0 0 0 0 0 0 0 0 0 0 0 0 0 0 0 0
0 0 0 0 0 0 0 0 0 0 0 0 0 0 0 0 0 0 0 0 0 0 0 0 0 0 0 0 0 0 0 0 0 0 0 0 0 0 0 0 0 0 0 0
0 0 0 0 0 0 0 0 0 0 0 0 0 0 0 0 0 0 0 0 0 0 0 0 0 0 0 0 0 0 0 0 0 0 0 0 0 0 0 0 0 0 0 0
0 0 0 0 0 0 0 0 0 0 0 0 0 0 0 0 0 0 0 0 0 0 0 0 0 0 0 0 0 0 0 0 0 0 0 0 0 0 0 0 0 0 0 0
0 0 0 0 0 0 0 0 0 0 0 0 0 0 0 0 0 0 0 0 0 0 0 0 0 0 0 0 0 0 0 0 0 0 0 0 0 0 0 0 0 0 0 0
0 0 0 0 0 0 0 0 0 0 0 0 0 0 0 0 0 0 0 0 0 0 0 0 0 0 0 0 0 0 0 0 0 0 0 0 0 0 0 0 0 0 0 0
0 0 0 0 0 0 0 0 0 0 0 0 0 0 0 0 0 0 0 0 0 0 0 0 0 0 0 0 0 0 0 0 0 0 0 0 0 0 0 0 0 0 0 0
0 0 0 0 0 0 0 0 0 0 0 0 0 0 0 0 0 0 0 0 0 0 0 0 0 0 0 0 0 0 0 0 0 0 0 0 0 0 0 0 0 0 0 0
0 0 0 0 0 0 0 0 0 0 0 0 0 0 0 0 0 0 0 0 0 0 0 0 0 0 0 0 0 0 0 0 0 0 0 0 0 0 0 0 0 0 0 0
0 0 0 0 0 0 0 0 0 0 0 0 0 0 0 0 0 0 0 0 0 0 0 0 0 0 0 0 0 0 0 0 0 0 0 0 0 0 0 0 0 0 0 0
0 0 0 0 0 0 0 0 0 0 0 0 0 0 0 0 0 0 0 0 0 0 0 0 0 0 0 0 0 0 0 0 0 0 0 0 0 0 0 0 0 0 0 0
0 0 0 0 0 0 0 0 0 0 0 0 0 0 0 0 0 0 0 0 0 0 0 0 0 0 0 0 0 0 0 0 0 0 0 0 0 0 0 0 0 0 0 0
0 0 0 0 0 0 0 0 0 0 0 0 0 0 0 0 0 0 0 0 0 0 0 0 0 0 0 0 0 0 0 0 0 0 0 0 0 0 0 0 0 0 0 0
0 0 0 0 0 0 0 0 0 0 0 0 0 0 0 0 0 0 0 0 0 0 0 0 0 0 0 0 0 0 0 0 0 0 0 0 0 0 0 0 0 0 0 0
0 0 0 0 0 0 0 0 0 0 0 0 0 0 0 0 0 0 0 0 0 0 0 0 0 0 0 0 0 0 0 0 0 0 0 0 0 0 0 0 0 0 0 0
Wind_Speed
8 8 8 7 5 3 3 5 4 1 2 6 8 7 6 7 8 8 7 6 4 3 3 4 5 6 7 8 9 9 9 9 8 7 7 6 6 6 5 5 6 6 6 6
9 9 4 3 4 4 4 5 2 2 2 5 6 8 6 7 8 8 7 6 4 4 4 4 5 6 7 8 9 10 9 9 9 7 7 6 7 6 5 4 5 6 6 5
10 5 6 7 7 5 3 4 2 1 3 4 6 7 6 6 7 7 7 6 4 4 5 5 5 6 7 8 9 8 9 9 9 8 6 6 5 5 4 5 4 5 5 5
5 5 7 7 4 4 2 1 1 3 5 2 3 5 3 4 6 7 7 5 4 3 4 4 5 6 7 8 8 9 9 9 9 8 7 8 6 6 7 6 5 6 5 4
6 6 6 4 3 1 4 3 2 3 5 6 4 6 1 3 4 3 4 4 3 2 3 4 4 5 6 7 7 8 8 8 9 8 7 7 7 6 6 6 6 6 5 5
7 3 2 4 5 3 7 5 4 4 6 6 1 5 2 1 1 1 1 2 2 2 2 3 3 4 5 6 6 7 8 8 8 8 8 8 8 8 8 8 7 6 5 4
7 6 4 4 6 5 6 5 4 5 4 1 2 5 3 3 1 2 1 1 2 2 2 3 4 4 5 6 6 7 7 8 8 8 8 8 8 8 8 7 7 7 5 5
9 8 5 3 2 3 3 5 5 5 4 1 3 5 1 2 1 2 3 2 2 2 2 2 3 4 5 5 6 6 7 8 8 8 8 8 8 6 5 7 7 6 5 5
6 7 5 3 2 2 3 2 4 6 4 5 2 3 2 3 4 4 4 4 4 3 2 3 3 3 4 4 5 6 7 7 7 8 8 8 8 7 7 7 7 6 6 5
2 6 6 5 5 4 4 2 4 5 5 4 2 3 0 2 1 3 4 4 4 3 3 3 3 3 3 3 4 5 5 6 6 7 7 6 7 7 7 7 7 7 7 6
2 4 7 7 6 4 6 4 3 3 4 5 4 2 3 1 2 3 3 4 4 4 4 3 2 3 3 3 3 4 4 5 6 7 7 7 7 7 7 7 7 7 6 6
0 3 4 4 3 2 4 3 5 5 3 4 5 1 4 2 3 4 4 3 4 4 4 3 3 3 3 3 3 4 4 4 5 6 6 6 7 6 7 7 8 7 7 6
4 5 4 6 6 6 5 4 5 4 4 4 5 0 5 2 4 4 5 4 5 5 5 4 3 3 3 3 3 3 4 4 4 5 5 6 6 7 8 8 7 7 7 7
3 5 6 5 2 5 6 7 7 8 5 5 6 7 5 5 5 4 4 5 5 5 5 5 4 3 3 3 3 3 3 3 4 4 5 5 6 6 7 7 7 7 8 7
5 5 3 1 1 3 5 7 10 11 8 7 6 9 11 8 6 4 4 5 6 6 6 6 5 4 3 3 2 2 3 2 3 3 4 5 6 5 6 6 7 7 8 8
5 4 4 5 4 5 7 9 10 11 10 10 11 11 5 3 3 3 4 5 6 7 6 6 5 5 4 3 2 2 2 2 2 3 4 4 5 5 5 6 6 7 7 7
6 6 5 4 4 5 9 9 11 8 9 8 7 4 3 4 4 4 3 5 6 6 6 6 6 5 4 3 2 2 1 1 2 2 2 3 4 4 5 5 6 6 6 7
6 6 3 3 5 6 3 3 4 7 6 8 9 7 6 6 5 5 4 5 5 6 6 6 6 5 5 3 3 2 2 2 2 2 2 2 3 4 4 5 5 6 6 6
3 5 4 4 4 4 3 4 5 5 3 4 6 5 3 3 5 4 3 4 5 4 5 5 6 5 5 4 4 4 3 2 2 2 2 2 2 3 4 4 5 5 5 5
2 5 5 5 5 3 4 5 3 4 4 2 2 3 1 3 3 2 2 2 3 3 4 4 5 6 6 5 5 5 4 3 3 2 2 2 2 2 3 4 4 4 4 4
7 6 8 7 5 3 3 4 5 5 3 3 1 2 3 4 3 4 1 1 2 3 4 5 6 6 5 5 6 7 5 4 3 3 3 3 3 3 3 3 3 3 3 4
8 7 7 6 7 4 6 6 5 3 3 2 3 2 3 4 3 2 2 1 2 3 4 5 5 6 5 6 7 7 6 5 4 4 4 4 4 3 3 3 3 3 3 3
7 5 3 5 1 5 3 2 2 4 4 3 3 3 3 4 3 2 2 2 3 3 4 4 6 6 5 6 7 8 6 6 6 6 6 5 5 4 4 4 4 3 3 3
6 3 5 5 4 3 2 1 2 3 4 4 4 3 3 3 2 2 1 1 2 3 4 4 5 6 6 6 7 8 6 6 7 7 7 6 6 5 5 4 4 4 4 3
5 8 6 6 4 5 5 2 1 2 2 1 1 1 1 1 1 1 1 1 1 1 3 4 5 6 6 6 6 7 7 7 8 9 8 7 6 6 5 5 4 5 4 3
8 8 8 5 6 6 5 3 0 1 1 2 2 3 3 2 2 2 2 2 2 2 1 3 4 6 6 6 6 6 6 8 9 9 8 6 6 5 6 6 5 8 8 5
Wind_Direction
176 199 206 209 223 301 292 273 279 76 142 233 249 258 234 210 220 231 237 248 271 309 335 347 342 339 338 344 342 341 336 341 341 338 333 331 330 326 324 325 325 314 305 299
183 207 188 146 163 208 242 262 263 139 170 255 271 269 247 221 227 237 250 257 276 306 322 343 337 340 343 345 344 340 340 341 342 338 326 319 317 313 319 321 320 319 315 307
203 142 144 162 173 203 228 281 300 238 177 219 276 253 205 199 223 231 242 255 271 290 315 335 341 342 341 345 347 340 339 337 341 337 328 323 320 312 324 329 323 320 316 308
161 137 165 171 171 245 206 72 212 212 245 245 281 296 163 187 220 227 233 237 251 268 296 324 334 339 341 345 343 340 342 341 342 338 337 335 331 330 330 326 323 316 311 307
134 152 169 167 115 251 85 115 183 240 266 269 224 274 163 166 236 226 224 231 244 259 294 317 328 334 339 344 343 343 345 346 348 346 345 332 335 334 331 330 330 327 327 320
106 100 59 98 91 106 138 162 171 215 249 255 211 273 285 137 359 62 171 207 224 249 283 306 323 329 337 343 343 345 347 350 349 347 343 345 342 339 339 341 339 333 328 324
138 127 112 145 143 149 212 250 248 225 222 232 102 265 284 47 337 280 277 231 221 243 283 305 318 328 337 342 343 343 347 347 349 347 348 349 346 338 339 339 336 333 331 330
175 158 145 170 246 197 213 276 299 305 311 326 192 254 16 78 259 239 235 227 227 238 263 289 310 321 327 337 341 341 345 346 350 349 350 347 350 342 342 339 333 331 329 333
188 131 114 94 80 244 191 224 336 290 285 276 232 248 237 162 211 215 219 221 230 240 248 276 299 310 320 331 340 342 342 344 348 350 348 348 347 346 341 339 338 334 332 332
172 138 143 137 148 62 340 141 214 260 290 287 274 254 267 162 209 218 231 235 232 233 244 264 292 305 316 327 331 339 338 340 347 347 350 349 345 345 342 339 343 341 341 338
229 169 151 182 216 191 171 193 227 256 290 294 312 65 72 321 309 281 263 247 235 232 242 260 284 302 307 310 320 332 336 338 346 347 348 348 351 349 346 348 348 342 344 344
242 247 176 159 105 338 253 239 230 262 238 261 287 314 109 250 274 272 270 248 231 230 237 247 265 280 289 301 316 330 337 340 345 344 345 350 350 353 351 353 350 346 348 347
169 216 198 172 172 184 205 201 224 258 261 245 261 42 122 241 270 262 255 241 223 223 228 235 245 263 281 292 304 321 335 340 342 344 347 351 356 357 355 353 354 354 354 353
241 231 263 294 30 161 189 188 202 219 243 248 249 286 300 301 296 277 245 232 222 223 228 235 244 251 262 281 291 310 329 336 336 339 349 355 357 355 351 352 357 358 359 359
241 237 224 232 140 204 219 203 201 222 246 266 282 288 299 315 309 290 250 225 222 225 228 233 236 245 249 264 278 296 314 322 325 334 347 354 356 357 354 355 358 1 2 1
222 223 197 197 194 224 240 230 218 230 244 254 273 285 297 317 291 267 234 219 224 226 228 231 232 235 242 250 258 263 285 305 313 331 350 353 349 357 356 354 358 3 1 2
189 205 218 203 176 230 244 225 210 214 220 237 259 290 325 295 285 272 253 227 231 231 227 228 229 228 233 237 244 250 273 280 293 325 347 343 348 356 351 351 358 359 1 6
195 199 220 221 203 233 90 96 199 223 239 235 257 282 288 288 294 273 257 246 236 229 226 222 223 218 223 224 219 226 232 248 279 310 329 344 343 350 348 349 352 351 357 4
253 206 216 232 231 245 180 176 189 212 217 217 248 275 287 286 258 223 209 235 242 226 220 215 215 213 215 215 212 218 224 229 249 279 301 321 329 338 342 346 347 347 352 358
182 232 232 222 240 224 120 119 168 228 197 122 232 276 256 238 260 71 79 210 223 213 202 200 204 209 213 211 210 223 231 233 238 250 267 283 299 312 325 336 338 342 342 344
188 201 222 228 240 243 102 133 180 219 97 70 285 272 228 243 333 26 20 211 207 200 197 197 203 209 214 211 213 228 233 237 235 236 243 247 256 273 297 313 320 325 334 337
199 194 203 209 221 197 124 168 207 18 32 329 300 282 255 265 297 307 286 233 209 198 196 200 207 213 212 213 222 234 239 239 228 229 237 243 251 261 269 278 293 302 311 315
219 225 212 216 204 71 149 201 357 330 296 301 298 299 274 262 271 281 276 245 215 212 204 205 217 222 217 215 227 241 238 232 228 230 236 241 244 244 252 263 268 274 279 296
188 200 220 227 219 185 176 215 290 292 286 297 297 291 262 255 279 286 287 282 238 227 221 216 223 231 230 225 229 243 246 233 233 237 243 240 244 244 238 243 258 266 274 280
175 182 210 226 190 174 182 182 316 306 305 315 344 26 341 297 324 329 319 330 300 251 234 229 234 243 248 239 236 239 239 238 240 244 245 244 242 249 254 243 247 259 262 276
187 195 205 216 178 188 161 138 213 189 81 44 74 80 56 32 17 9 7 5 345 323 279 248 251 257 262 258 252 246 237 238 245 250 250 247 243 238 243 249 240 219 237 238